Regional Weather Roundup
Issued by NWS

Home | Current Version | Previous Version | Text Only | Print | Product List | Glossary On
Versions: 1 2 3 4 5 6 7 8 9 10 11 12 13 14 15 16 17 18 19 20 21 22 23 24 25 26 27
000
ASUS42 KFFC 261903
RWRGA
WEATHER ROUNDUP FOR GEORGIA
NATIONAL WEATHER SERVICE PEACHTREE CITY GA
300 PM EDT FRI AUG 26 2016

NOTE: "FAIR" INDICATES FEW OR NO CLOUDS BELOW 12,000 FEET WITH NO
SIGNIFICANT WEATHER AND/OR OBSTRUCTIONS TO VISIBILITY.

* = USE WITH CAUTION. THE STATIONS MARKED WITH AN ASTERISK MAY NOT
REPORT WEATHER SUCH AS PRECIPITATION, FOG, OR THUNDER AND ARE NOT
QUALITY CONTROLLED BY NWS.

THE REMARK "TC" DENOTES TEMPERATURE READING IN DEGREES CELSIUS.

GAZ001>058-262000-
NORTH GEORGIA

CITY           SKY/WX    TMP DP  RH WIND       PRES   REMARKS
ATLANTA        MOSUNNY   92  67  43 E9        30.08F HX  95
ATHENS         MOSUNNY   93  74  53 VRB3      30.08F HX 103
CHAMBLEE       MOSUNNY   92  70  48 S3        30.08F HX  97
PEACHTREE CITY SUNNY     92  68  45 VRB3      30.07F HX  96
ROME           SUNNY     93  69  45 CALM      30.04F HX  98
WEST ATLANTA   LGT RAIN  84  74  71 NE3       30.07F HX  91
GAINESVILLE    MOSUNNY   91  70  49 E10       30.13F HX  96
CARTERSVILLE   SUNNY     94  69  44 VRB5      30.06F HX  99


CITY           SKY/WX    TMP DP  RH WIND       PRES   REMARKS
DALTON*        PTSUNNY   88  72  58 CALM      30.06F HX  94
LAWRENCEVILLE* PTSUNNY   95  72  46 E9        30.09F HX 103
MARIETTA       PTSUNNY   90  69  51 SE7       30.08F HX  94
KENNESAW*      MOSUNNY   91  70  49 SE6       30.02F HX  97
CANTON*        SUNNY     95  57  28 SE7       30.11F HX  94
BLAIRSVILLE*     N/A    N/A N/A N/A MISG      30.15F
$$

GAZ059>098-102>109-262000-
CENTRAL GEORGIA

CITY           SKY/WX    TMP DP  RH WIND       PRES   REMARKS
AUGUSTA-BUSH   MOSUNNY   95  69  42 NE5       30.04F HX 100
AUGUSTA-DANIEL SUNNY     95  69  42 SE12      30.07F HX 100
COLUMBUS       SUNNY     91  66  43 MISG      30.05F HX  93
MACON          MOSUNNY   93  65  39 E10       30.05F HX  95
ROBINS AFB     MOSUNNY   93  67  42 E8        30.03F HX  97


CITY           SKY/WX    TMP DP  RH WIND       PRES   REMARKS
LAGRANGE*      MOSUNNY   97  71  43 SE8       30.06F HX 105
MILLEDGEVILLE* SUNNY     95  72  46 CALM      30.05F HX 103
$$

GAZ099>101-110>166-262000-
SOUTH GEORGIA

CITY           SKY/WX    TMP DP  RH WIND       PRES   REMARKS
SAVANNAH       MOSUNNY   91  70  49 SE17G25   30.05F HX  96
VALDOSTA       MOSUNNY   92  70  48 E8        30.02F HX  97
ALMA           MOSUNNY   91  68  46 E8        30.04F HX  95
ST SIMONS      MOSUNNY   89  71  55 E15       30.05F HX  95
FT STEWART     MOSUNNY   91  69  48 E12G17    30.02F HX  96
ALBANY         PTSUNNY   92  64  39 E13G18    30.05F HX  93
HUNTER AFB     MOSUNNY   89  77  67 E14       30.04F HX 102
MOODY AFB      MOSUNNY   92  66  43 E10       30.01F HX  94
BRUNSWICK      MOSUNNY   90  73  58 NE15G22   30.06F HX  98


CITY           SKY/WX    TMP DP  RH WIND       PRES   REMARKS
BAINBRIDGE*    SUNNY     93  64  38 E13G18    30.03F HX  95
MOULTRIE*      MOSUNNY   90  63  40 E6        30.05F HX  90
VIDALIA*       MOSUNNY   93  73  52 E17       30.05F HX 102
WAYCROSS*        N/A     94  75  53 SE13      30.04F HX 104
DOUGLAS*       MOSUNNY   91  66  43 E5        30.05F HX  94
$$




USA.gov is the U.S. government's official web portal to all federal, state and local government web resources and services.